Location: Newark
(21.1200°N, 73.4000°E)
Time: 13:49:18
(UTC+00:00)

Explorer 11/Cluster Stage 4 - Pass Details

Date: 26 January 2020
Orbit: 467 x 1259 km, 28.8° (Epoch: 23 February)

Event Time Altitude Azimuth Distance (km) Brightness Sun altitude
Rises 06:23:26 0° 231° (SW) 3,917 10.3 47.8°
Reaches altitude 10° 06:26:10 10° 227° (SW) 3,044 9.9 48.0°
Maximum altitude 06:33:43 55° 152° (SSE) 1,464 10.5 48.6°
Drops below altitude 10° 06:41:44 10° 77° (ENE) 3,220 9.8 49.0°
Sets 06:44:41 0° 73° (ENE) 4,156 10.3 49.2°
